Location: Newark
(41.6478°N, 9.0078°E)
Time: 23:56:19
(UTC+00:00)

UWE-3 - Pass Details

Date: 25 January 2020
Orbit: 585 x 682 km, 97.6° (Epoch: 24 February)

Event Time Altitude Azimuth Distance (km) Brightness Sun altitude
Rises 05:05:56 0° 10° (N) 2,868 ? -18.1°
Reaches altitude 10° 05:08:06 10° 10° (N) 1,973 ? -17.7°
Maximum altitude 05:12:23 79° 284° (WNW) 639 ? -16.9°
Drops below altitude 10° 05:16:46 10° 198° (SSW) 2,016 ? -16.1°
Sets 05:18:59 0° 197° (SSW) 2,936 ? -15.7°
